Location: Fontevrault
(47.1823°N, 0.0493°E)
Time: 03:38:57
(UTC+00:00)

Meteor 1-21 Rocket - Pass Details

Date: 31 October 2021
Orbit: 834 x 907 km, 81.2° (Epoch: 07 December)

Event Time Altitude Azimuth Distance (km) Brightness Sun altitude
Rises 06:04:26 0° 196° (SSW) 3,407 7.3 -6.9°
Reaches altitude 10° 06:06:50 10° 198° (SSW) 2,485 6.6 -6.5°
Maximum altitude 06:12:28 72° 282° (WNW) 916 4.3 -5.5°
Drops below altitude 10° 06:18:17 10° 8° (N) 2,553 6.6 -4.6°
Sets 06:20:47 0° 10° (N) 3,507 7.4 -4.2°
